EW5770 Weather Reports


Display with metric or nautical units.
time (UTC)temp
F
wind
direction
speed
MPH
gust
MPH
rain 1hr
in
rain 24hr
in
rain mn
in
humidity
%
barometer
mb
20260831131202 80 243 0.0 2.0 0.00 0.00 0.00 73 1014.8
20260831130206 81 230 0.0 1.0 0.00 0.00 0.00 73 1014.8
20260831125201 81 235 0.0 1.0 0.00 0.00 0.00 73 1014.9
20260831124200 81 203 0.0 11.0 0.00 0.00 0.00 73 1014.9
20260831123208 81 233 0.0 1.0 0.00 0.00 0.00 74 1014.8
20260831122210 81 236 0.0 1.0 0.00 0.00 0.00 74 1014.8
20260831121208 81 231 0.0 1.0 0.00 0.00 0.00 74 1014.8
20260831120210 81 232 1.0 1.0 0.00 0.00 0.00 74 1014.8
20260831115206 82 264 0.0 1.0 0.00 0.00 0.00 73 1014.9
20260831114208 81 249 0.0 1.0 0.00 0.00 0.00 73 1014.9
20260831113209 81 0 0.0 0.0 0.00 0.00 0.00 73 1015.0
20260831112208 82 228 0.0 1.0 0.00 0.00 0.00 71 1015.2
20260831105207 81 242 0.0 1.0 0.00 0.00 0.00 68 1015.2
20260831104207 81 253 0.0 1.0 0.00 0.00 0.00 69 1015.3
20260831103208 82 225 0.0 3.0 0.00 0.00 0.00 67 1015.4
20260831102207 82 233 0.0 1.0 0.00 0.00 0.00 68 1015.3
20260831101208 81 238 0.0 2.0 0.00 0.00 0.00 68 1015.2
20260831100209 81 242 0.0 1.0 0.00 0.00 0.00 68 1015.2
20260831095209 81 192 0.0 4.0 0.00 0.00 0.00 69 1015.2
20260831094203 81 228 0.0 1.0 0.00 0.00 0.00 69 1015.4
20260831093207 81 231 1.0 1.0 0.00 0.00 0.00 69 1015.2
20260831092202 81 236 0.0 9.0 0.00 0.00 0.00 68 1015.3
20260831091208 82 167 0.0 1.0 0.00 0.00 0.00 67 1015.3
20260831090208 82 0 0.0 0.0 0.00 0.00 0.00 66 1015.4
20260831085205 81 0 0.0 0.0 0.00 0.00 0.00 66 1015.4
20260831084207 80 0 0.0 0.0 0.00 0.00 0.00 68 1015.5
20260831083207 79 0 0.0 0.0 0.00 0.00 0.00 67 1015.6
20260831082208 78 0 0.0 0.0 0.00 0.00 0.00 68 1015.5
20260831081201 77 0 0.0 0.0 0.00 0.00 0.00 71 1015.4
20260831080207 76 0 0.0 0.0 0.00 0.00 0.00 73 1015.5
20260831074207 73 0 0.0 0.0 0.00 0.00 0.00 77 1015.3
20260831073208 73 0 0.0 0.0 0.00 0.00 0.00 78 1015.3
20260831072205 72 0 0.0 0.0 0.00 0.00 0.00 78 1015.3
20260831071210 71 0 0.0 0.0 0.00 0.00 0.00 80 1015.3
20260831070159 71 0 0.0 0.0 0.00 0.00 0.00 80 1015.2
20260831065158 71 0 0.0 0.0 0.00 0.00 0.00 79 1015.0
20260831064204 71 0 0.0 0.0 0.00 0.00 0.00 78 1015.0
20260831063207 71 0 0.0 0.0 0.00 0.00 0.00 79 1015.0
20260831062206 70 0 0.0 0.0 0.00 0.00 0.00 82 1015.1
20260831061207 69 0 0.0 0.0 0.00 0.00 0.00 85 1015.1
20260831060207 70 46 0.0 2.0 0.00 0.00 0.00 82 1015.1
20260831054207 69 0 0.0 0.0 0.00 0.00 0.00 83 1014.9
20260831053208 68 0 0.0 0.0 0.00 0.00 0.00 86 1015.0
20260831052206 68 0 0.0 0.0 0.00 0.00 0.00 85 1015.0
20260831051205 68 0 0.0 0.0 0.00 0.00 0.00 86 1014.9
20260831050208 67 0 0.0 0.0 0.00 0.00 0.00 88 1014.9
20260831045206 67 0 0.0 0.0 0.00 0.00 0.00 89 1014.9
20260831044209 67 0 0.0 0.0 0.00 0.00 0.00 87 1014.7
20260831043210 68 0 0.0 0.0 0.00 0.00 0.00 86 1014.7
20260831040158 68 0 0.0 0.0 0.00 0.00 0.00 87 1014.6
20260831035206 68 0 0.0 0.0 0.00 0.00 0.00 87 1014.7
20260831034208 68 0 0.0 0.0 0.00 0.00 0.00 88 1014.5
20260831033208 67 0 0.0 0.0 0.00 0.00 0.00 89 1014.7
20260831032208 67 0 0.0 0.0 0.00 0.00 0.00 88 1014.8
20260831031205 68 0 0.0 0.0 0.00 0.00 0.00 86 1014.9
20260831030210 68 0 0.0 0.0 0.00 0.00 0.00 86 1014.8
20260831025203 68 0 0.0 0.0 0.00 0.00 0.00 86 1014.8
20260831024159 68 0 0.0 0.0 0.00 0.00 0.00 87 1014.9
20260831021208 68 0 0.0 0.0 0.00 0.00 0.00 88 1014.9
20260831020209 68 0 0.0 0.0 0.00 0.00 0.00 88 1015.0
20260831015206 68 0 0.0 0.0 0.00 0.00 0.00 86 1015.1
20260831014206 68 0 0.0 0.0 0.00 0.00 0.00 85 1015.2
20260831012212 68 0 0.0 0.0 0.00 0.00 0.00 87 1015.1
20260831011204 68 0 0.0 0.0 0.00 0.00 0.00 88 1015.1
20260831010207 68 0 0.0 0.0 0.00 0.00 0.00 89 1015.2
20260831005202 68 0 0.0 0.0 0.00 0.00 0.00 88 1015.2
20260831004208 69 0 0.0 0.0 0.00 0.00 0.00 86 1015.1
20260831003211 69 0 0.0 0.0 0.00 0.00 0.00 86 1015.1
20260831002207 69 0 0.0 0.0 0.00 0.00 0.00 86 1015.2
20260831001205 69 0 0.0 0.0 0.00 0.00 0.00 87 1015.2
20260831000208 69 0 0.0 0.0 0.00 0.00 0.00 86 1015.2
20260830235200 69 0 0.0 0.0 0.00 0.00 0.00 88 1015.1
20260830232200 70 0 0.0 0.0 0.00 0.00 0.00 85 1015.0
20260830231200 70 0 0.0 0.0 0.00 0.00 0.00 86 1015.1
20260830230210 70 0 0.0 0.0 0.00 0.00 0.00 87 1015.1
20260830225207 70 0 0.0 0.0 0.00 0.00 0.00 87 1015.1
20260830224207 70 0 0.0 0.0 0.00 0.00 0.00 87 1015.1
20260830223208 71 0 0.0 0.0 0.00 0.00 0.00 85 1015.2
20260830222207 71 0 0.0 0.0 0.00 0.00 0.00 85 1015.0
20260830221202 71 0 0.0 0.0 0.00 0.00 0.00 85 1015.0
20260830220207 71 0 0.0 0.0 0.00 0.00 0.00 85 1015.0
20260830215200 71 0 0.0 0.0 0.00 0.00 0.00 84 1015.1
20260830214159 71 0 0.0 0.0 0.00 0.00 0.00 85 1015.1
20260830213207 72 0 0.0 0.0 0.00 0.00 0.00 86 1015.0
20260830212207 72 0 0.0 0.0 0.00 0.00 0.00 87 1014.9
20260830211204 72 0 0.0 0.0 0.00 0.00 0.00 86 1014.8
20260830210204 72 0 0.0 0.0 0.00 0.00 0.00 85 1014.8
20260830205210 73 0 0.0 0.0 0.00 0.00 0.00 85 1014.7
20260830204200 73 0 0.0 0.0 0.00 0.00 0.00 85 1014.7
20260830203210 73 0 0.0 0.0 0.00 0.00 0.00 85 1014.6
20260830202210 73 0 0.0 0.0 0.00 0.00 0.00 84 1014.7
20260830201200 73 0 0.0 0.0 0.00 0.00 0.00 85 1014.7
20260830200210 74 0 0.0 0.0 0.00 0.00 0.00 85 1014.6
20260830194208 74 0 0.0 0.0 0.00 0.00 0.00 84 1014.5
20260830193207 74 0 0.0 0.0 0.00 0.00 0.00 84 1014.5
20260830192159 75 0 0.0 0.0 0.00 0.00 0.00 83 1014.3
20260830191211 75 0 0.0 0.0 0.00 0.00 0.00 82 1014.2
20260830190212 75 0 0.0 0.0 0.00 0.00 0.00 82 1014.1
20260830185209 75 0 0.0 0.0 0.00 0.00 0.00 81 1014.0
20260830184211 76 0 0.0 0.0 0.00 0.00 0.00 80 1014.1
20260830183210 76 0 0.0 0.0 0.00 0.00 0.00 80 1013.9
20260830182205 76 0 0.0 0.0 0.00 0.00 0.00 79 1013.8
20260830181209 77 0 0.0 0.0 0.00 0.00 0.00 78 1013.6
20260830180207 78 0 0.0 0.0 0.00 0.00 0.00 77 1013.6
20260830175202 78 0 0.0 0.0 0.00 0.00 0.00 76 1013.6
20260830173208 79 0 0.0 0.0 0.00 0.00 0.00 75 1013.6
20260830170211 80 0 0.0 0.0 0.00 0.00 0.00 74 1013.5
20260830165200 80 0 0.0 0.0 0.00 0.00 0.00 73 1013.6
20260830164200 81 236 0.0 1.0 0.00 0.00 0.00 71 1013.6
20260830163208 81 0 0.0 0.0 0.00 0.00 0.00 71 1013.5
20260830162209 81 208 0.0 1.0 0.00 0.00 0.00 71 1013.5
20260830161209 82 225 0.0 1.0 0.00 0.00 0.00 71 1013.4
20260830160208 81 0 0.0 0.0 0.00 0.00 0.00 71 1013.4
20260830155207 83 242 0.0 1.0 0.00 0.00 0.00 69 1013.5
20260830153205 82 213 0.0 1.0 0.00 0.00 0.00 69 1013.6
20260830152210 82 220 0.0 1.0 0.00 0.00 0.00 69 1013.6
20260830151211 81 244 0.0 1.0 0.00 0.00 0.00 70 1013.6
20260830150209 82 244 0.0 1.0 0.00 0.00 0.00 69 1013.6
20260830145205 82 246 0.0 1.0 0.00 0.00 0.00 69 1013.8
20260830144207 82 238 0.0 1.0 0.00 0.00 0.00 69 1013.7
20260830143209 82 242 0.0 1.0 0.00 0.00 0.00 69 1013.6
20260830142202 82 257 0.0 1.0 0.00 0.00 0.00 70 1013.7
20260830141200 82 241 0.0 1.0 0.00 0.00 0.00 69 1013.8
20260830140210 82 0 0.0 0.0 0.00 0.00 0.00 68 1013.9
20260830135205 82 0 0.0 0.0 0.00 0.00 0.00 68 1014.0
20260830133210 83 214 0.0 2.0 0.00 0.00 0.00 66 1014.0